Location: Palomar Mountain Lodge
(33.3110°N, 116.8495°W)
Time: 06:35:56
(UTC-07:00)

ATLAS CENTAUR R/B - Pass Details

Date: 12 July 2018
Orbit: 460 x 692 km, 64.7° (Epoch: 17 July)

Event Time Altitude Azimuth Distance (km) Brightness Sun altitude
Rises 20:26:32 0° 164° (SSE) 2,495 4.2 -5.9°
Reaches altitude 10° 20:29:42 10° 132° (SE) 1,657 3.1 -6.5°
Maximum altitude 20:31:14 12° 107° (ESE) 1,545 3.0 -6.8°
Drops below altitude 10° 20:32:47 10° 83° (E) 1,703 3.4 -7.0°
Sets 20:36:09 0° 53° (NE) 2,649 4.6 -7.6°
